Date,TemperatureHighF,TemperatureAvgF,TemperatureLowF,DewpointHighF,DewpointAvgF,DewpointLowF,HumidityHigh,HumidityAvg,HumidityLow,PressureMaxIn,PressureMinIn,WindSpeedMaxMPH,WindSpeedAvgMPH,GustSpeedMaxMPH,PrecipitationSumIn
2013-3-1,68.4,54.6,41.3,45.8,37.4,30.6,81,55,25,30.24,30.07,9,2,14,0.00
2013-3-2,59.2,49.9,41.3,45.0,32.5,23.0,83,53,30,30.36,30.20,19,6,24,0.00
2013-3-3,68.7,54.4,38.1,53.5,40.1,25.0,84,60,41,30.23,29.96,18,6,23,0.00
2013-3-4,75.1,66.2,57.2,62.8,59.1,53.0,89,79,61,29.95,29.73,35,14,36,0.00
2013-3-5,67.2,60.9,48.5,63.2,45.1,27.5,94,59,31,30.27,29.77,26,10,33,0.00
2013-3-6,66.8,51.3,37.8,44.3,34.1,27.2,80,54,23,30.39,30.18,10,2,14,0.00
2013-3-7,70.8,57.3,42.7,57.6,49.3,38.8,91,76,60,30.19,30.10,16,3,19,0.00
2013-3-8,72.9,63.9,53.8,64.2,58.9,50.3,93,84,72,30.10,29.99,15,3,21,0.00
2013-3-9,76.7,68.9,65.2,68.2,64.9,61.6,93,87,72,29.99,29.65,30,12,35,0.00
2013-3-10,70.5,64.3,53.5,66.7,55.5,42.8,96,75,44,30.02,29.64,20,8,27,0.24
2013-3-11,65.8,55.1,46.0,43.5,35.5,26.9,78,51,24,30.10,29.95,17,5,23,0.00
2013-3-12,73.7,56.5,39.9,52.4,40.4,30.1,83,57,30,30.18,30.02,12,1,13,0.00
2013-3-13,75.5,58.3,45.9,50.4,44.9,39.5,93,66,30,30.35,30.17,15,2,18,0.00
2013-3-14,73.5,59.4,45.4,57.7,50.4,43.4,95,74,48,30.35,30.23,14,4,20,0.00
2013-3-15,75.5,62.2,49.6,63.0,55.8,48.2,97,81,55,30.24,30.02,19,5,22,0.00
2013-3-16,77.8,67.0,56.6,65.4,61.0,54.9,96,82,59,30.01,29.80,23,9,27,0.01
2013-3-17,80.2,70.4,62.8,69.4,65.9,60.7,97,86,69,29.82,29.65,20,8,24,0.00
2013-3-18,84.4,73.3,66.5,71.4,67.5,60.1,96,83,61,29.85,29.68,12,4,16,0.00
2013-3-19,80.2,69.1,56.4,69.2,61.9,52.2,89,78,66,29.93,29.80,16,4,20,0.00
2013-3-20,75.4,65.6,56.8,64.3,54.9,44.5,93,71,36,30.14,29.87,18,4,23,0.00
2013-3-21,73.7,64.4,53.1,64.9,58.0,49.3,91,81,60,30.00,29.64,22,7,28,0.00
2013-3-22,77.5,71.5,67.9,71.9,68.8,64.5,95,91,79,29.68,29.60,14,6,18,0.00
2013-3-23,75.5,67.7,59.4,69.9,65.0,58.3,97,91,78,29.68,29.55,10,2,14,0.00
2013-3-24,63.8,58.0,48.1,62.9,43.3,30.7,97,62,33,30.09,29.60,33,9,33,0.01
2013-3-25,62.3,50.7,40.1,34.3,27.2,18.0,72,44,20,30.31,30.09,15,4,17,0.00
2013-3-26,64.7,52.1,38.2,37.3,28.0,22.0,68,43,21,30.43,30.27,10,1,14,0.00
2013-3-27,69.3,57.5,43.6,54.8,44.7,35.5,78,64,35,30.31,30.16,18,5,24,0.00
2013-3-28,72.8,66.3,60.1,62.4,59.0,54.8,90,78,66,30.18,30.11,16,5,22,0.00
2013-3-29,77.9,66.6,54.3,64.4,59.4,52.7,96,79,53,30.15,30.05,18,5,23,0.00
2013-3-30,79.5,69.2,58.0,69.0,64.3,56.6,97,85,64,30.08,29.91,17,5,21,0.00
2013-3-31,80.8,72.2,65.7,70.2,67.6,64.5,97,86,67,29.93,29.79,14,7,22,0.00